星链-1594 (STARLINK-1594 )

导读 | 豆包AI

STARLINK-1594是美国太空探索技术公司星链卫星互联网项目的卫星,于2020年8月18日发射升空,归属发射国家美国。星链项目旨在构建覆盖全球的低轨卫星互联网星座,该卫星入轨后承担提供全球互联网接入服务的任务,尤其服务偏远地区与网络基础设施薄弱区域,推动全球网络覆盖。

基本信息
目录编号:
46140
目录名称:
STARLINK-1594
国际标识:
2020-057Z
轨道中心:
EARTH
卫星名称:
星链-1594
卫星全名:
星链-1594 (STARLINK-1594 )
卫星状态:
已陨落 最后检测时间 2025-02-05
发射日期:
2020-08-18 UTC
国别 :
美国 (US)
星等 :
--
轨道信息
数据来源 国际轨道数据
星历时间: 2025-02-05T13:53:35+0800
轨道信息已过期402天
半长轴: 6547.77km
偏心率: 0.0006692
轨道倾角: 53.019°
近地点辐角 263.860°
升交点赤经 226.318°
平近点角 246.755°
近地点: 165.253km
远地点: 174.017km
周期: 87.882分钟
每日圈数: 16.385612
详细信息
固有亮度:
5
最大亮度:
2.5
卫星平台:
Starlink V1.0
覆盖范围:
全球
运营商:
太空探索技术公司
运营商所在国:
美国
制造商(研发单位):
太空探索技术公司
制造商所在国:
美国
使用方式:
暂无
卫星简介
星链(Starlink)计划是由太空探索技术公司(SpaceX)提出的一个巨型低轨卫星互联网星座项目,计划在2019年至2024年间在太空搭建由约1.2万颗卫星组成的“星链”网络,其中1584颗将部署在地球上空550千米处的近地轨道,并从2020年开始工作。该卫星仍在工作。